| time (UTC) | temp C | wind direction | speed KPH | gust KPH | rain 1hr cm | rain 24hr cm | rain mn cm | humidity % | barometer mb |
| 20260504200505 | 20 | 196 | 6.4 | 19.3 | 0.00 | 0.00 | 0.00 | 65 | 1012.7 |
| 20260504200005 | 20 | 124 | 11.3 | 16.1 | 0.00 | 0.00 | 0.00 | 64 | 1012.8 |
| 20260504195506 | 20 | 193 | 9.7 | 16.1 | 0.00 | 0.00 | 0.00 | 65 | 1012.7 |
| 20260504194505 | 19 | 199 | 4.8 | 12.9 | 0.00 | 0.00 | 0.00 | 67 | 1012.8 |
| 20260504194005 | 19 | 166 | 6.4 | 11.3 | 0.00 | 0.00 | 0.00 | 65 | 1012.8 |
| 20260504193505 | 19 | 158 | 4.8 | 12.9 | 0.00 | 0.00 | 0.00 | 66 | 1013.0 |
| 20260504193005 | 19 | 144 | 6.4 | 12.9 | 0.00 | 0.00 | 0.00 | 67 | 1013.0 |
| 20260504192505 | 18 | 171 | 4.8 | 11.3 | 0.00 | 0.00 | 0.00 | 67 | 1013.1 |
| 20260504192005 | 18 | 156 | 6.4 | 14.5 | 0.00 | 0.00 | 0.00 | 67 | 1013.1 |
| 20260504191505 | 18 | 186 | 8.0 | 14.5 | 0.00 | 0.00 | 0.00 | 68 | 1013.1 |
| 20260504191006 | 18 | 146 | 9.7 | 16.1 | 0.00 | 0.00 | 0.00 | 67 | 1013.3 |
| 20260504190505 | 18 | 167 | 4.8 | 14.5 | 0.00 | 0.00 | 0.00 | 67 | 1013.3 |
| 20260504185505 | 18 | 204 | 8.0 | 16.1 | 0.00 | 0.00 | 0.00 | 69 | 1013.4 |
| 20260504185005 | 18 | 146 | 14.5 | 19.3 | 0.00 | 0.00 | 0.00 | 68 | 1013.5 |
| 20260504184505 | 18 | 187 | 9.7 | 19.3 | 0.00 | 0.00 | 0.00 | 70 | 1013.5 |
| 20260504184005 | 17 | 191 | 9.7 | 16.1 | 0.00 | 0.00 | 0.00 | 70 | 1013.5 |
| 20260504183504 | 17 | 210 | 9.7 | 16.1 | 0.00 | 0.00 | 0.00 | 72 | 1013.5 |
| 20260504183005 | 17 | 211 | 4.8 | 12.9 | 0.00 | 0.00 | 0.00 | 71 | 1013.4 |
| 20260504182505 | 17 | 118 | 14.5 | 20.9 | 0.00 | 0.00 | 0.00 | 71 | 1013.5 |
| 20260504181005 | 17 | 209 | 6.4 | 20.9 | 0.00 | 0.00 | 0.00 | 70 | 1013.4 |
| 20260504180504 | 17 | 190 | 8.0 | 19.3 | 0.00 | 0.00 | 0.00 | 71 | 1013.5 |
| 20260504180006 | 17 | 168 | 12.9 | 19.3 | 0.00 | 0.00 | 0.00 | 72 | 1013.5 |
| 20260504175505 | 17 | 195 | 4.8 | 14.5 | 0.00 | 0.00 | 0.00 | 71 | 1013.5 |
| 20260504175005 | 17 | 180 | 9.7 | 16.1 | 0.00 | 0.00 | 0.00 | 72 | 1013.5 |
| 20260504174505 | 17 | 183 | 8.0 | 19.3 | 0.00 | 0.00 | 0.00 | 72 | 1013.5 |
| 20260504173505 | 17 | 210 | 11.3 | 20.9 | 0.00 | 0.00 | 0.00 | 72 | 1013.5 |
| 20260504173005 | 16 | 170 | 8.0 | 16.1 | 0.00 | 0.00 | 0.00 | 74 | 1013.5 |
| 20260504172505 | 16 | 151 | 11.3 | 19.3 | 0.00 | 0.00 | 0.00 | 72 | 1013.5 |
| 20260504171505 | 16 | 153 | 8.0 | 20.9 | 0.00 | 0.00 | 0.00 | 73 | 1013.3 |
| 20260504171005 | 16 | 191 | 8.0 | 19.3 | 0.00 | 0.00 | 0.00 | 74 | 1013.2 |
| 20260504170505 | 16 | 196 | 9.7 | 19.3 | 0.00 | 0.00 | 0.00 | 74 | 1013.3 |
| 20260504150505 | 13 | 0 | 4.8 | 16.1 | 0.00 | 0.00 | 0.00 | 83 | 1012.8 |
| 20260504141004 | 12 | 210 | 8.0 | 19.3 | 0.00 | 0.00 | 0.00 | 86 | 1012.4 |
| 20260504140505 | 12 | 197 | 8.0 | 19.3 | 0.00 | 0.00 | 0.00 | 86 | 1012.3 |
| 20260504130504 | 12 | 202 | 8.0 | 22.5 | 0.00 | 0.00 | 0.00 | 85 | 1011.2 |
| 20260504110505 | 15 | 198 | 14.5 | 22.5 | 0.00 | 0.00 | 0.00 | 76 | 1009.4 |
| 20260504100504 | 15 | 199 | 6.4 | 11.3 | 0.00 | 0.00 | 0.00 | 75 | 1008.7 |
| 20260504082005 | 18 | 182 | 3.2 | 4.8 | 0.00 | 0.00 | 0.00 | 62 | 1008.2 |
| 20260504081505 | 19 | 166 | 1.6 | 3.2 | 0.00 | 0.00 | 0.00 | 60 | 1008.1 |
| 20260504081005 | 20 | 168 | 3.2 | 4.8 | 0.00 | 0.00 | 0.00 | 59 | 1008.1 |
| 20260504050005 | 22 | 262 | 1.6 | 1.6 | 0.00 | 0.00 | 0.00 | 47 | 1007.6 |
| 20260504045504 | 23 | 38 | 1.6 | 3.2 | 0.00 | 0.00 | 0.00 | 48 | 1007.6 |
| 20260504045004 | 23 | 287 | 3.2 | 4.8 | 0.00 | 0.00 | 0.00 | 44 | 1007.6 |
| 20260504044505 | 23 | 263 | 3.2 | 4.8 | 0.00 | 0.00 | 0.00 | 44 | 1007.5 |
| 20260504044005 | 24 | 247 | 4.8 | 4.8 | 0.00 | 0.00 | 0.00 | 43 | 1007.5 |
| 20260504043505 | 24 | 266 | 3.2 | 4.8 | 0.00 | 0.00 | 0.00 | 42 | 1007.4 |
| 20260504043004 | 24 | 300 | 3.2 | 4.8 | 0.00 | 0.00 | 0.00 | 42 | 1007.4 |
| 20260504042504 | 24 | 290 | 3.2 | 3.2 | 0.00 | 0.00 | 0.00 | 41 | 1007.4 |
| 20260504041505 | 25 | 321 | 3.2 | 4.8 | 0.00 | 0.00 | 0.00 | 41 | 1007.3 |
| 20260504041005 | 25 | 317 | 4.8 | 8.0 | 0.00 | 0.00 | 0.00 | 39 | 1007.2 |
| 20260504040005 | 25 | 301 | 3.2 | 4.8 | 0.00 | 0.00 | 0.00 | 41 | 1007.1 |
| 20260504035504 | 25 | 307 | 3.2 | 4.8 | 0.00 | 0.00 | 0.00 | 41 | 1007.1 |
| 20260504035004 | 25 | 308 | 3.2 | 8.0 | 0.00 | 0.00 | 0.00 | 42 | 1007.0 |
| 20260504034504 | 25 | 318 | 3.2 | 4.8 | 0.00 | 0.00 | 0.00 | 42 | 1007.0 |
| 20260504034004 | 25 | 300 | 1.6 | 3.2 | 0.00 | 0.00 | 0.00 | 42 | 1006.9 |
| 20260504033505 | 25 | 296 | 1.6 | 3.2 | 0.00 | 0.00 | 0.00 | 41 | 1006.9 |
| 20260504033005 | 25 | 328 | 3.2 | 4.8 | 0.00 | 0.00 | 0.00 | 40 | 1006.8 |
| 20260504031507 | 25 | 297 | 1.6 | 4.8 | 0.00 | 0.00 | 0.00 | 40 | 1006.7 |
| 20260504031005 | 25 | 322 | 1.6 | 3.2 | 0.00 | 0.00 | 0.00 | 42 | 1006.6 |
| 20260504030005 | 25 | 257 | 1.6 | 3.2 | 0.00 | 0.00 | 0.00 | 43 | 1006.5 |
| 20260504025005 | 26 | 248 | 3.2 | 4.8 | 0.00 | 0.00 | 0.00 | 38 | 1006.4 |
| 20260504024504 | 27 | 245 | 3.2 | 3.2 | 0.00 | 0.00 | 0.00 | 39 | 1006.4 |
| 20260504024004 | 27 | 245 | 3.2 | 3.2 | 0.00 | 0.00 | 0.00 | 37 | 1006.4 |
| 20260504023505 | 28 | 245 | 3.2 | 3.2 | 0.00 | 0.00 | 0.00 | 35 | 1006.4 |
| 20260504021505 | 29 | 245 | 3.2 | 3.2 | 0.00 | 0.00 | 0.00 | 35 | 1006.3 |
| 20260504021004 | 29 | 245 | 1.6 | 1.6 | 0.00 | 0.00 | 0.00 | 37 | 1006.3 |
| 20260504015504 | 30 | 245 | 1.6 | 3.2 | 0.00 | 0.00 | 0.00 | 36 | 1006.3 |
| 20260504015005 | 30 | 245 | 1.6 | 3.2 | 0.00 | 0.00 | 0.00 | 37 | 1006.4 |
| 20260504014505 | 31 | 245 | 1.6 | 1.6 | 0.00 | 0.00 | 0.00 | 37 | 1006.4 |
| 20260504014004 | 31 | 245 | 1.6 | 3.2 | 0.00 | 0.00 | 0.00 | 34 | 1006.5 |
| 20260504013504 | 32 | 245 | 1.6 | 1.6 | 0.00 | 0.00 | 0.00 | 34 | 1006.4 |
| 20260504013005 | 32 | 245 | 1.6 | 1.6 | 0.00 | 0.00 | 0.00 | 32 | 1006.5 |
| 20260504012504 | 33 | 202 | 1.6 | 3.2 | 0.00 | 0.00 | 0.00 | 31 | 1006.5 |
| 20260504012004 | 33 | 94 | 1.6 | 3.2 | 0.00 | 0.00 | 0.00 | 28 | 1006.6 |
| 20260504011504 | 33 | 94 | 1.6 | 3.2 | 0.00 | 0.00 | 0.00 | 24 | 1006.6 |
| 20260504011005 | 33 | 94 | 0.0 | 3.2 | 0.00 | 0.00 | 0.00 | 27 | 1006.7 |
| 20260504010504 | 33 | 94 | 1.6 | 3.2 | 0.00 | 0.00 | 0.00 | 25 | 1006.7 |
| 20260504010004 | 32 | 94 | 0.0 | 3.2 | 0.00 | 0.00 | 0.00 | 22 | 1006.8 |
| 20260504005504 | 32 | 94 | 1.6 | 3.2 | 0.00 | 0.00 | 0.00 | 23 | 1006.9 |
| 20260504005005 | 33 | 94 | 1.6 | 3.2 | 0.00 | 0.00 | 0.00 | 24 | 1006.9 |
| 20260504004005 | 32 | 94 | 1.6 | 3.2 | 0.00 | 0.00 | 0.00 | 22 | 1007.0 |
| 20260504003005 | 32 | 86 | 1.6 | 3.2 | 0.00 | 0.00 | 0.00 | 22 | 1007.0 |
| 20260504002505 | 32 | 102 | 1.6 | 1.6 | 0.00 | 0.00 | 0.00 | 24 | 1007.0 |
| 20260504002004 | 33 | 102 | 1.6 | 1.6 | 0.00 | 0.00 | 0.00 | 26 | 1007.0 |
| 20260504001005 | 33 | 338 | 3.2 | 3.2 | 0.00 | 0.00 | 0.00 | 22 | 1007.1 |
| 20260504000505 | 33 | 18 | 1.6 | 3.2 | 0.00 | 0.00 | 0.00 | 25 | 1007.1 |
| 20260504000004 | 33 | 319 | 1.6 | 3.2 | 0.00 | 0.00 | 0.00 | 21 | 1007.2 |
| 20260503235505 | 32 | 299 | 3.2 | 3.2 | 0.00 | 0.00 | 0.00 | 22 | 1007.3 |
| 20260503235004 | 32 | 317 | 1.6 | 3.2 | 0.00 | 0.00 | 0.00 | 23 | 1007.3 |
| 20260503234505 | 32 | 342 | 1.6 | 3.2 | 0.00 | 0.00 | 0.00 | 23 | 1007.4 |
| 20260503234004 | 32 | 342 | 1.6 | 3.2 | 0.00 | 0.00 | 0.00 | 25 | 1007.4 |
| 20260503233005 | 32 | 96 | 0.0 | 3.2 | 0.00 | 0.00 | 0.00 | 22 | 1007.6 |
| 20260503232505 | 32 | 80 | 3.2 | 3.2 | 0.00 | 0.00 | 0.00 | 25 | 1007.6 |
| 20260503232005 | 32 | 37 | 1.6 | 3.2 | 0.00 | 0.00 | 0.00 | 25 | 1007.7 |
| 20260503231504 | 32 | 6 | 1.6 | 3.2 | 0.00 | 0.00 | 0.00 | 23 | 1007.7 |
| 20260503231004 | 31 | 6 | 3.2 | 4.8 | 0.00 | 0.00 | 0.00 | 22 | 1007.7 |
| 20260503230005 | 31 | 300 | 1.6 | 3.2 | 0.00 | 0.00 | 0.00 | 24 | 1007.9 |
| 20260503225504 | 31 | 331 | 3.2 | 4.8 | 0.00 | 0.00 | 0.00 | 23 | 1008.0 |
| 20260503225004 | 31 | 303 | 1.6 | 3.2 | 0.00 | 0.00 | 0.00 | 22 | 1008.1 |
| 20260503224504 | 31 | 341 | 1.6 | 4.8 | 0.00 | 0.00 | 0.00 | 27 | 1008.2 |
| 20260503224005 | 31 | 326 | 1.6 | 3.2 | 0.00 | 0.00 | 0.00 | 25 | 1008.3 |
| 20260503222504 | 31 | 57 | 3.2 | 4.8 | 0.00 | 0.00 | 0.00 | 27 | 1008.5 |
| 20260503222005 | 31 | 9 | 1.6 | 3.2 | 0.00 | 0.00 | 0.00 | 27 | 1008.6 |
| 20260503221505 | 31 | 9 | 3.2 | 4.8 | 0.00 | 0.00 | 0.00 | 26 | 1008.6 |
| 20260503221004 | 31 | 11 | 1.6 | 3.2 | 0.00 | 0.00 | 0.00 | 29 | 1008.8 |
| 20260503220504 | 31 | 349 | 3.2 | 4.8 | 0.00 | 0.00 | 0.00 | 29 | 1008.8 |
| 20260503220004 | 31 | 88 | 3.2 | 4.8 | 0.00 | 0.00 | 0.00 | 29 | 1008.9 |
| 20260503215504 | 31 | 357 | 1.6 | 4.8 | 0.00 | 0.00 | 0.00 | 28 | 1009.0 |
| 20260503215004 | 31 | 358 | 3.2 | 8.0 | 0.00 | 0.00 | 0.00 | 29 | 1008.9 |
| 20260503214504 | 31 | 106 | 3.2 | 8.0 | 0.00 | 0.00 | 0.00 | 30 | 1009.1 |
| 20260503214004 | 30 | 70 | 3.2 | 11.3 | 0.00 | 0.00 | 0.00 | 29 | 1009.1 |
| 20260503213504 | 30 | 4 | 1.6 | 3.2 | 0.00 | 0.00 | 0.00 | 32 | 1009.1 |
| 20260503213004 | 30 | 350 | 1.6 | 8.0 | 0.00 | 0.00 | 0.00 | 31 | 1009.2 |
| 20260503212005 | 30 | 73 | 1.6 | 3.2 | 0.00 | 0.00 | 0.00 | 32 | 1009.3 |
| 20260503211504 | 30 | 23 | 1.6 | 3.2 | 0.00 | 0.00 | 0.00 | 30 | 1009.2 |
| 20260503211004 | 30 | 64 | 3.2 | 8.0 | 0.00 | 0.00 | 0.00 | 29 | 1009.3 |
| 20260503210005 | 30 | 10 | 3.2 | 8.0 | 0.00 | 0.00 | 0.00 | 33 | 1009.5 |
| 20260503205004 | 30 | 332 | 4.8 | 8.0 | 0.00 | 0.00 | 0.00 | 35 | 1009.6 |
| 20260503204504 | 30 | 39 | 3.2 | 9.7 | 0.00 | 0.00 | 0.00 | 34 | 1009.6 |
| 20260503204005 | 29 | 18 | 3.2 | 9.7 | 0.00 | 0.00 | 0.00 | 33 | 1009.6 |
| 20260503203504 | 29 | 19 | 3.2 | 4.8 | 0.00 | 0.00 | 0.00 | 34 | 1009.8 |
| 20260503203004 | 30 | 1 | 1.6 | 4.8 | 0.00 | 0.00 | 0.00 | 33 | 1009.8 |
| 20260503202505 | 29 | 41 | 3.2 | 8.0 | 0.00 | 0.00 | 0.00 | 34 | 1009.9 |
| 20260503202005 | 29 | 0 | 3.2 | 4.8 | 0.00 | 0.00 | 0.00 | 34 | 1010.0 |
| 20260503201504 | 29 | 45 | 1.6 | 3.2 | 0.00 | 0.00 | 0.00 | 33 | 1010.0 |
| 20260503201004 | 29 | 320 | 1.6 | 9.7 | 0.00 | 0.00 | 0.00 | 35 | 1010.1 |